Regional Weather Roundup
Issued by NWS Sioux Falls, SD

Home | Current Version | Previous Version | Text Only | Print | Product List | Glossary On
Versions: 1 2 3 4 5 6 7 8 9 10 11 12 13 14 15 16 17 18 19 20 21 22 23 24 25 26 27 28 29 30 31 32 33 34 35 36 37 38 39 40 41 42 43 44 45 46 47 48 49 50
000
ASUS43 KFSD 231310
RWRFSD

WEATHER ROUNDUP FOR SE SOUTH DAKOTA/SW MINNESOTA/NW IOWA
NATIONAL WEATHER SERVICE SIOUX FALLS SD
700 AM CST THU NOV 23 2017

NOTE: "FAIR" INDICATES FEW OR NO CLOUDS BELOW 12,000 FEET WITH NO
SIGNIFICANT WEATHER AND OR OBSTRUCTIONS TO VISIBILITY.


SDZ038>040-050-052>070-231400-
SOUTHEAST SOUTH DAKOTA

CITY           SKY/WX    TMP DP  RH WIND       PRES   REMARKS
BROOKINGS      CLOUDY    24  21  88 CALM      29.96F
CHAMBERLAIN    CLEAR     35  35 100 CALM      29.96F
HURON          CLOUDY    24  22  91 S6        29.97F WCI  17
MADISON        FAIR      25  25 100 NW7       29.96F WCI  17
MITCHELL       CLOUDY    28  26  92 CALM      30.00S
SIOUX FALLS    CLOUDY    28  24  85 N5        29.98F WCI  23
WINNER         FAIR      44  37  76 SW9       29.97F
YANKTON        CLOUDY    33  29  85 N3        30.00F
$$

MNZ071-072-080-081-089-090-097-098-231400-
SOUTHWEST MINNESOTA

CITY           SKY/WX    TMP DP  RH WIND       PRES   REMARKS
FAIRMONT       CLOUDY    28  23  81 NW12      29.96R WCI  18
JACKSON        CLOUDY    28  23  80 CALM      29.95F
LUVERNE        CLOUDY    27  21  80 CALM      29.98S
MARSHALL       CLOUDY    23  19  85 W8        29.97F WCI  14
MONTEVIDEO     CLOUDY    23  19  86 NW6       29.97S WCI  16
PIPESTONE      CLOUDY    25  21  86 N5        29.96F WCI  19
REDWOOD FALLS  CLOUDY    23  18  81 W7        29.96F WCI  15
WINDOM         CLOUDY    27  12  54 NW7       29.95F WCI  19
WORTHINGTON    CLOUDY    25  21  85 NW9       29.97R WCI  15
$$

IAZ001>003-012>014-020>022-031-032-NEZ013-014-SDZ071-231400-
NORTHWEST IOWA

CITY           SKY/WX    TMP DP  RH WIND       PRES   REMARKS
CHEROKEE       CLOUDY    29  26  87 CALM      29.99R
DENISON        CLOUDY    27  23  86 CALM      30.00S
ESTHERVILLE    CLOUDY    25  22  88 NW8       29.95S WCI  16
LE MARS        CLOUDY    32  28  86 VRB3      30.00S
ORANGE CITY    CLOUDY    28  27  93 W9        29.99R WCI  20
SHELDON        CLOUDY    25  21  86 W5        29.97R WCI  19
SIOUX CITY     CLOUDY    33  29  85 NW10      30.00S WCI  25
SPENCER        CLOUDY    23  20  88 W5        29.96F WCI  17
STORM LAKE     CLOUDY    30  25  80 NW10      29.97R WCI  21
$$

ABBREVIATIONS USED IN REMARKS
   TC - TEMPERATURE IN CELSIUS
  WCI - WIND CHILL INDEX
   HX - HEAT INDEX
  VSB - VISIBILITY





USA.gov is the U.S. government's official web portal to all federal, state and local government web resources and services.